#timestamp,LO_Frequency,Hit 
1504454415.1,286046997.8,N
1504454435.9,286046996.6,N
1504454455.7,286046997.4,N
1504454475.5,286046996.9,N
1504454495.4,286046996.7,N
1504454515.2,286046995.5,N
1504454535.0,286046995.5,N
1504454535.9,286046995.5,N
1504454555.8,286046999.4,N
1504454575.6,286046998.2,N
1504454595.4,286046998.3,N
1504454615.3,286046999.3,N
1504454635.1,286047001.1,N
1504454636.0,286047001.1,N
1504454655.8,286046999.8,N
1504454675.6,286046999.4,N
1504454695.5,286047000.6,N
1504454715.3,286047000.9,N
1504454735.1,286046997.5,N
1504454755.9,286046997.5,N
1504454775.7,286046998.3,N
1504454795.5,286046996.8,N
1504454815.4,286046996.6,N
1504454835.2,286046998.8,N
1504454855.0,286046999.0,N
1504454855.9,286046999.0,N
1504454875.8,286047000.7,N
1504454895.6,286046996.9,N
1504454915.4,286046998.0,N
1504454935.2,286046997.6,N
1504454955.1,286046994.9,P
1504454956.0,286046994.9,P
1504454975.8,286046997.4,N
1504454995.7,286046997.3,N
1504455015.5,286046998.8,N
1504455035.3,286047000.2,N
1504455055.1,286047002.1,N
1504455075.9,286047000.0,N
1504455095.7,286046998.5,N
1504455115.5,286046999.3,N
1504455135.4,286046996.5,N
1504455155.2,286046996.8,N
1504455175.0,286046999.2,N
1504455175.9,286046999.2,N
1504455195.8,286046999.6,N
1504455215.6,286046999.6,N
1504455235.4,286046999.6,N
1504455255.3,286046998.9,N
1504455275.1,286046999.3,N
1504455276.0,286046999.3,N
1504455295.8,286046998.9,N
1504455315.6,286047000.7,N
1504455335.5,286046997.7,N
1504455355.3,286046999.5,N
1504455375.1,286046996.5,N
1504455395.9,286046998.6,N
1504455415.7,286047001.1,N
1504455435.5,286047000.6,N
1504455455.4,286047000.2,N
1504455475.2,286046998.3,N
1504455495.0,286046998.3,N
1504455495.9,286046998.3,N
1504455515.8,286046996.6,N
1504455535.6,286047002.3,N
1504455555.4,286047002.6,N
1504455575.2,286047002.4,N
1504455595.1,286046999.7,N
1504455596.0,286046999.7,N
1504455615.8,286047001.0,N
1504455635.6,286046999.5,N
1504455655.5,286046995.9,N
1504455675.3,286046997.3,N
1504455695.1,286046997.9,N
1504455715.9,286046999.6,N
1504455735.7,286046996.7,N
1504455755.5,286046997.1,N
1504455775.4,286046996.6,N
1504455795.2,286046998.8,N
1504455815.0,286046999.6,N
1504455815.9,286046999.6,N
1504455835.7,286046996.9,N
1504455855.6,286046999.4,N
1504455875.4,286046994.9,N
1504455895.2,286046996.6,N
1504455915.1,286046996.9,N
1504455916.0,286046996.9,N
1504455935.8,286046998.3,N
1504455955.6,286046996.5,N
1504455975.5,286046999.5,N
1504455995.3,286046997.5,N
1504456015.1,286046995.2,N
1504456035.9,286046995.1,N
1504456055.7,286046997.7,N
1504456075.5,286046999.2,N
1504456095.3,286046996.5,N
1504456115.2,286046997.7,N
1504456135.0,286046999.6,N
1504456135.9,286046999.6,N
1504456155.7,286046998.6,N
1504456175.6,286046999.5,N
1504456195.4,286046996.7,N
1504456215.2,286046997.7,N
1504456235.1,286046995.6,P
1504456236.0,286046995.6,P
1504456255.8,286046997.8,N
1504456275.7,286046996.6,P
1504456295.5,286047002.5,P
1504456315.3,286047004.0,N
1504456335.1,286047002.1,N
1504456355.9,286047004.0,N
1504456375.7,286047004.3,N
1504456395.5,286047002.2,N
1504456415.4,286047000.4,N
1504456435.2,286046998.6,N
1504456455.0,286047002.7,N
1504456455.9,286047002.7,N
1504456475.8,286047000.2,N
1504456495.6,286046999.3,N
1504456515.4,286046998.1,N
1504456535.3,286047001.1,N
1504456555.1,286047000.4,N
1504456556.0,286047000.4,N
1504456575.8,286047000.3,N
1504456595.6,286046998.9,N
1504456615.5,286047000.2,N
1504456635.3,286047002.0,N
1504456655.1,286047004.4,N
1504456675.9,286047003.3,N
1504456695.7,286047004.0,N
1504456715.5,286047003.9,N
1504456735.4,286047001.5,N
1504456755.2,286047004.0,N
1504456775.0,286047003.5,N
1504456775.9,286047003.5,N
1504456795.8,286047004.1,N
1504456815.6,286047003.1,N
1504456835.4,286047003.9,N
1504456855.2,286047003.6,N
1504456875.1,286047002.9,N
1504456876.0,286047002.9,N
1504456895.8,286047003.6,N
1504456915.6,286047004.4,N
1504456935.5,286047001.0,N
1504456955.3,286046998.2,N
1504456975.1,286046996.8,N
1504456995.9,286046998.7,N
1504457015.7,286047000.7,N
1504457035.5,286046999.8,N
1504457055.4,286047002.6,N
1504457075.2,286047002.8,N
1504457095.0,286047000.1,N
1504457095.9,286047000.1,N
1504457115.7,286047002.5,N
1504457135.6,286047002.1,N
1504457155.4,286047002.6,N
1504457175.2,286047005.6,N
1504457195.1,286047003.0,N
1504457196.0,286047003.0,N
1504457255.5,286047001.5,P
1504457275.3,286047005.7,P
1504457295.2,286047005.9,N
1504457315.0,286047003.8,N
1504457315.9,286047003.8,N
1504457335.7,286047003.8,N
1504457355.6,286047001.9,N
1504457375.4,286047004.9,N
1504457395.2,286047001.4,N
1504457415.1,286047001.3,N
1504457416.0,286047001.3,N
1504457435.8,286047001.4,N
1504457455.6,286047002.9,N
1504457475.5,286047001.4,N
1504457495.3,286047001.4,N
1504457515.1,286047005.3,P
1504457535.9,286047005.4,P
1504457555.7,286047004.4,P
1504457575.5,286047002.5,N
1504457595.4,286047000.2,N
1504457615.2,286047002.3,N
1504457635.0,286047000.9,N
1504457635.9,286047000.9,N
1504457655.8,286046999.7,N
1504457675.6,286047000.1,N
1504457695.4,286046999.0,N
1504457715.3,286047000.7,N
1504457735.1,286046998.1,N
1504457736.0,286046998.1,N
1504457755.8,286046999.2,N
1504457775.6,286046998.2,N
1504457795.5,286046999.9,N
1504457815.3,286047000.6,N
1504457835.1,286046998.8,N
1504457855.9,286047000.2,N
1504457875.7,286047002.3,N
1504457895.5,286047001.5,N
1504457915.4,286047001.0,N
1504457935.2,286047000.9,N
1504457955.0,286046998.9,N
1504457955.9,286046998.9,N
1504457975.8,286047002.4,N
1504457995.6,286047005.9,N
